Showing default

ELEKTRON 1, 746

Orbit data source: Space-Track

ELEKTRON 1, 746 is a payload satellite owned by OKB-1 (CIS) that was launched on Thu, 30 Jan 1964 UTC via a VOSTOK 8K72 launch vehicle from the Tyuratam Missile And Space Complex (TTMTR). Payload-class satellites include a variety of spacecraft equipped with specific instruments for various scientific and technological missions. These include communications satellites like Starlink; space stations such as the ISS; scientific satellites like the Hubble; Earth observation satellites from companies like Planet Labs, Umbra, and HawkEye 360; GPS; miniature CubeSats for education and research; and military/defense satellites.

Loading next visibility...
Identifier
746, 1964-006A
Orbit
Active
Country
Flag of CISCIS
Related business
Manufacturer
OKB-1
Mission
Spacecraft
Bus & Motor
OBJECT D, SRM
Mass
350 kg wet, 350 kg dry
Launch date (UTC)
1964-01-30 (62 years ago)
Launch vehicle
VOSTOK 8K72
Launch site
Tyuratam Missile And Space Complex (TTMTR)
Object type
Payload
Rocket body
Debris
Shape & HBR
DOMED CYL+ANT+PAN, 2.0 m
Radar Cross Section
Large (>1 m²)

Expand to show TLE details & history
Last TLE update: 1 day ago

TLE from 1 day ago
0 ELEKTRON 1
1 00746U 64006A   26206.14447049  .00000823  00000-0  23492-3 0  9998
2 00746  60.8845 136.7975 2994027 236.5867  91.2571  9.10941679 70703
Epoch: 2026-07-25T03:28Z
TLE epoch observation values (Epoch: 2026-07-25T03:28:02.250Z)
Latitude
0.00004°
Longitude
141.92718°
Altitude
4,184.383 km
Speed
5.86 km/s
True Right ascension
09h 07m 11s
True Declination
0° 00' 00"
Sunlit
Object was in daylight at epoch
Visualization orbit readout
Latitude
Unknown
Longitude
Unknown
Altitude
Unknown
Speed
Unknown
Apparent Right ascension
Unknown
Apparent Declination
Unknown
Sunlit
N/A
Visualization observer readout
Local Sidereal Time
23:20:52
Azimuth
Unknown
Elevation
Unknown
Doppler factor
Unknown
Orbital elements
Apogee altitude
6,204.881 km
Perigee altitude
406.233 km
Semi-major axis
9,683.694 km
Eccentricity
0.2994
Inclination
60.8845°
RAAN
136.7975°
Arg. of periapsis
236.5867°
True anomaly
123.49863°
Mean anomaly
91.2571°
Eccentric anomaly
107.6079°
Mean motion
2.27762 °/min
Orbital period
158.06 mins
BSTAR
0.00023492
Loading maneuver chart data...
Computing Atmospheric mass density...

Documentation

Showing up to 5 results
|